LDPE-3A

Last updated on Sun Dec 14 2025 00:02:53 GMT+0000 (Coordinated Universal Time)

1 55264U 23008B 25347.07813424 -.00000240 00000+0 00000+0 0 9990 2 55264 1.8018 83.5438 0001123 206.8083 265.7519 1.00575308 9954
UTC large
Height (km)
Speed (km/s)
/
Latitude / Longitude
Inclination (degrees)
Orbital Period (minutes)
Azimuth
Elevation
Range (km)
Doppler Factor

Next 0 passes for location: London (51.5072 / 0.1276)

Sorry there are no passes over London.